Location: Christian Reformed Church
(43.0975°N, 93.8113°W)
Time: 15:32:00
(UTC+00:00)

USA 290 - Pass Details

Date: 13 December 2025
Orbit: 396 x 415 km, 73.6° (Epoch: 30 October)

Event Time Altitude Azimuth Distance (km) Brightness Sun altitude
Rises 12:53:23 0° 192° (SSW) 2,302 6.2 -8.1°
Reaches altitude 10° 12:55:24 10° 189° (S) 1,451 5.2 -7.8°
Maximum altitude 12:58:32 61° 108° (ESE) 462 2.8 -7.3°
Drops below altitude 10° 13:01:44 10° 27° (NNE) 1,472 5.0 -6.7°
Sets 13:03:48 0° 24° (NNE) 2,340 6.0 -6.4°
